CW5111 Weather Reports


time (UTC)temp
C
wind
direction
speed
KPH
gust
KPH
rain 1hr
cm
rain 24hr
cm
rain mn
cm
humidity
%
barometer
mb
20260502210004 11 29 1.6 6.4 0.03 0.43 0.43 93 1010.5
20260502204503 12 24 3.2 8.0 0.03 0.43 0.43 93 1010.5
20260502203003 11 354 4.8 11.3 0.00 0.43 0.43 92 1010.6
20260502194503 12 351 4.8 9.7 0.03 0.43 0.43 92 1010.8
20260502193004 12 354 3.2 9.7 0.05 0.43 0.43 91 1010.9
20260502191503 12 355 3.2 9.7 0.08 0.41 0.41 91 1011.1
20260502190004 12 354 3.2 6.4 0.15 0.41 0.41 91 1011.3
20260502184503 12 357 3.2 9.7 0.20 0.38 0.38 90 1011.4
20260502183003 13 341 1.6 6.4 0.30 0.38 0.38 90 1011.5
20260502181503 13 240 1.6 3.2 0.30 0.30 0.30 89 1011.9
20260502163003 17 12 1.6 3.2 0.00 0.00 0.00 62 1012.0
20260502161503 17 243 1.6 3.2 0.00 0.00 0.00 62 1012.1
20260502151503 17 216 3.2 8.0 0.00 0.00 0.00 62 1013.0
20260502123003 17 192 4.8 17.7 0.00 0.00 0.00 59 1015.2
20260502121503 18 244 4.8 12.9 0.00 0.00 0.00 62 1015.3
20260502114504 16 203 4.8 11.3 0.00 0.00 0.00 60 1015.8
20260502113004 17 186 4.8 14.5 0.00 0.00 0.00 58 1015.8
20260502111504 16 151 6.4 14.5 0.00 0.00 0.00 62 1015.9
20260502110004 17 171 4.8 11.3 0.00 0.00 0.00 63 1016.2
20260502104503 16 179 4.8 16.1 0.00 0.00 0.00 65 1016.6
20260502103003 17 227 4.8 16.1 0.00 0.00 0.00 63 1016.5
20260502101504 16 228 3.2 11.3 0.00 0.00 0.00 68 1016.4
20260502091504 15 225 3.2 8.0 0.00 0.00 0.00 71 1017.1
20260502071504 10 229 1.6 4.8 0.00 0.00 0.00 89 1017.6
20260502070004 9 237 1.6 4.8 0.00 0.00 0.00 89 1017.6
20260502064503 9 246 1.6 4.8 0.00 0.00 0.00 91 1017.4
20260502063003 9 257 3.2 6.4 0.00 0.00 0.00 92 1017.4
20260502061503 8 246 3.2 8.0 0.00 0.00 0.00 94 1017.4
20260502060005 8 240 1.6 6.4 0.00 0.00 0.00 94 1017.3
20260502054503 8 224 1.6 4.8 0.00 0.00 0.00 94 1017.2
20260502053003 7 225 1.6 4.8 0.00 0.00 0.00 94 1017.2
20260502051503 7 232 1.6 4.8 0.00 0.00 0.00 94 1017.2
20260502050004 7 235 1.6 4.8 0.00 0.00 0.00 94 1017.2
20260502044504 7 198 1.6 3.2 0.00 0.00 0.00 93 1017.3
20260502043003 7 194 1.6 3.2 0.00 0.00 0.00 93 1017.2
20260502041504 7 183 1.6 3.2 0.00 0.00 0.00 93 1017.2
20260502040005 7 176 1.6 3.2 0.00 0.00 0.00 92 1017.4
20260502034503 8 168 1.6 3.2 0.00 0.00 0.00 92 1017.4
20260502033003 8 181 1.6 3.2 0.00 0.00 0.00 92 1017.5
20260502031503 8 0 0.0 1.6 0.00 0.00 0.00 92 1017.5
20260502030004 8 0 0.0 1.6 0.00 0.00 0.00 91 1017.5
20260502023003 9 243 1.6 3.2 0.00 0.00 0.00 91 1017.6
20260502020005 10 240 1.6 3.2 0.00 0.00 0.00 92 1017.8
20260502014503 10 241 1.6 4.8 0.00 0.00 0.00 92 1017.9
20260502013003 8 0 0.0 3.2 0.00 0.00 0.00 90 1018.1
20260502011504 9 0 0.0 1.6 0.00 0.00 0.00 89 1018.2
20260502010004 10 237 1.6 1.6 0.00 0.00 0.00 89 1018.2
20260502004504 10 244 1.6 3.2 0.00 0.00 0.00 89 1018.5
20260502003004 10 245 1.6 3.2 0.00 0.00 0.00 88 1018.6
20260502000004 11 251 1.6 4.8 0.00 0.00 0.00 88 1018.7
20260501234503 11 253 1.6 4.8 0.00 0.00 0.00 87 1018.7
20260501233003 12 247 1.6 4.8 0.00 0.00 0.00 86 1018.7
20260501231503 12 257 3.2 8.0 0.00 0.00 0.00 87 1018.9
20260501230007 12 252 1.6 8.0 0.00 0.00 0.00 87 1018.8
20260501224504 13 237 1.6 4.8 0.00 0.00 0.00 87 1018.8
20260501223003 13 246 3.2 8.0 0.00 0.00 0.00 87 1018.7
20260501221504 13 246 1.6 8.0 0.00 0.00 0.00 86 1018.7
20260501214504 13 250 1.6 6.4 0.00 0.00 0.00 87 1018.8
20260501213004 13 249 1.6 4.8 0.00 0.00 0.00 87 1018.7